Meteo pe oră la Dadunqiu

Astăzi, 14 Aprilie, Miercuri

Timp Temperatura Precipitaţii Vânt Presiune Umiditate
00:00 +8°C° 0 mm 6 m/s 763 mmHg 23%
01:00 +8°C° 0 mm 5 m/s 763 mmHg 24%
02:00 +7°C° 0 mm 5 m/s 763 mmHg 26%
03:00 +7°C° 0 mm 4 m/s 763 mmHg 28%
04:00 +6°C° 0 mm 4 m/s 763 mmHg 29%
05:00 +5°C° 0 mm 3 m/s 763 mmHg 31%
06:00 +8°C° 0 mm 3 m/s 763 mmHg 27%
07:00 +10°C° 0 mm 3 m/s 763 mmHg 22%
08:00 +12°C° 0 mm 3 m/s 763 mmHg 18%
09:00 +16°C° 0 mm 3 m/s 763 mmHg 15%
10:00 +18°C° 0 mm 3 m/s 763 mmHg 12%
11:00 +21°C° 0 mm 3 m/s 762 mmHg 9%
12:00 +21°C° 0 mm 4 m/s 761 mmHg 9%
13:00 +22°C° 0 mm 4 m/s 761 mmHg 9%
14:00 +23°C° 0 mm 4 m/s 760 mmHg 9%
15:00 +23°C° 0 mm 4 m/s 759 mmHg 9%
16:00 +23°C° 0 mm 4 m/s 758 mmHg 9%
17:00 +23°C° 0 mm 4 m/s 758 mmHg 10%
18:00 +21°C° 0 mm 4 m/s 758 mmHg 12%
19:00 +20°C° 0 mm 4 m/s 758 mmHg 14%
20:00 +18°C° 0 mm 4 m/s 758 mmHg 16%
21:00 +18°C° 0 mm 4 m/s 758 mmHg 16%
22:00 +16°C° 0 mm 5 m/s 758 mmHg 16%
23:00 +16°C° 0 mm 6 m/s 758 mmHg 17%

Mâine, 15 Aprilie, Joi

Timp Temperatura Precipitaţii Vânt Presiune Umiditate
00:00 +15°C° 0 mm 6 m/s 757 mmHg 21%
01:00 +14°C° 0 mm 5 m/s 757 mmHg 24%
02:00 +14°C° 0 mm 5 m/s 757 mmHg 28%
03:00 +13°C° 0 mm 5 m/s 756 mmHg 37%
04:00 +13°C° 0 mm 5 m/s 756 mmHg 46%
05:00 +12°C° 0 mm 5 m/s 755 mmHg 55%
06:00 +13°C° 0 mm 5 m/s 755 mmHg 55%
07:00 +14°C° 0 mm 6 m/s 755 mmHg 54%
08:00 +15°C° 0 mm 7 m/s 755 mmHg 54%
09:00 +17°C° 0 mm 7 m/s 754 mmHg 47%
10:00 +20°C° 0 mm 7 m/s 754 mmHg 40%
11:00 +22°C° 0 mm 8 m/s 753 mmHg 33%
12:00 +23°C° 0 mm 8 m/s 752 mmHg 30%
13:00 +24°C° 0 mm 9 m/s 750 mmHg 26%
14:00 +27°C° 0 mm 10 m/s 749 mmHg 23%
15:00 +26°C° 0 mm 11 m/s 749 mmHg 19%
16:00 +24°C° 0 mm 11 m/s 749 mmHg 14%
17:00 +23°C° 0 mm 12 m/s 749 mmHg 10%
18:00 +19°C° 0 mm 11 m/s 750 mmHg 13%
19:00 +17°C° 0 mm 11 m/s 752 mmHg 16%
20:00 +13°C° 0 mm 10 m/s 754 mmHg 19%
21:00 +12°C° 0 mm 9 m/s 754 mmHg 20%
22:00 +12°C° 0 mm 9 m/s 754 mmHg 20%
23:00 +11°C° 0 mm 8 m/s 755 mmHg 21%

Poimâine, 16 Aprilie, Vineri

Timp Temperatura Precipitaţii Vânt Presiune Umiditate
00:00 +11°C° 0 mm 8 m/s 755 mmHg 20%
01:00 +10°C° 0 mm 8 m/s 755 mmHg 19%
02:00 +10°C° 0 mm 8 m/s 755 mmHg 18%
03:00 +9°C° 0 mm 7 m/s 755 mmHg 19%
04:00 +9°C° 0 mm 6 m/s 756 mmHg 19%
05:00 +8°C° 0 mm 5 m/s 756 mmHg 19%
06:00 +9°C° 0 mm 5 m/s 756 mmHg 18%
07:00 +12°C° 0 mm 5 m/s 757 mmHg 16%
08:00 +13°C° 0 mm 6 m/s 757 mmHg 15%
09:00 +14°C° 0 mm 6 m/s 757 mmHg 14%
10:00 +16°C° 0 mm 7 m/s 757 mmHg 13%
11:00 +17°C° 0 mm 7 m/s 757 mmHg 12%
12:00 +17°C° 0 mm 8 m/s 757 mmHg 11%
13:00 +18°C° 0 mm 8 m/s 757 mmHg 10%
14:00 +18°C° 0 mm 9 m/s 756 mmHg 10%
15:00 +18°C° 0 mm 9 m/s 757 mmHg 9%
16:00 +18°C° 0 mm 8 m/s 757 mmHg 9%
17:00 +17°C° 0 mm 8 m/s 757 mmHg 8%
18:00 +16°C° 0 mm 7 m/s 758 mmHg 9%
19:00 +14°C° 0 mm 6 m/s 759 mmHg 9%
20:00 +13°C° 0 mm 5 m/s 760 mmHg 9%
21:00 +12°C° 0 mm 5 m/s 761 mmHg 11%
22:00 +11°C° 0 mm 4 m/s 761 mmHg 13%
23:00 +10°C° 0 mm 3 m/s 762 mmHg 14%

17 Aprilie, Sâmbătă

Timp Temperatura Precipitaţii Vânt Presiune Umiditate
00:00 +10°C° 0 mm 4 m/s 762 mmHg 16%
01:00 +9°C° 0 mm 5 m/s 762 mmHg 17%
02:00 +9°C° 0 mm 5 m/s 762 mmHg 19%
03:00 +8°C° 0 mm 5 m/s 763 mmHg 21%
04:00 +8°C° 0 mm 5 m/s 763 mmHg 23%
05:00 +7°C° 0 mm 5 m/s 763 mmHg 25%
06:00 +9°C° 0 mm 6 m/s 764 mmHg 23%
07:00 +10°C° 0 mm 7 m/s 764 mmHg 20%
08:00 +11°C° 0 mm 8 m/s 765 mmHg 18%
09:00 +13°C° 0 mm 8 m/s 765 mmHg 16%
10:00 +15°C° 0 mm 8 m/s 765 mmHg 14%
11:00 +16°C° 0 mm 7 m/s 765 mmHg 12%
12:00 +17°C° 0 mm 7 m/s 765 mmHg 11%
13:00 +19°C° 0 mm 6 m/s 764 mmHg 10%
14:00 +19°C° 0 mm 6 m/s 763 mmHg 9%
15:00 +20°C° 0 mm 5 m/s 763 mmHg 9%
16:00 +20°C° 0 mm 5 m/s 763 mmHg 8%
17:00 +20°C° 0 mm 4 m/s 762 mmHg 8%
18:00 +18°C° 0 mm 3 m/s 763 mmHg 10%
19:00 +16°C° 0 mm 2 m/s 763 mmHg 11%
20:00 +15°C° 0 mm 1 m/s 763 mmHg 13%
21:00 +14°C° 0 mm 1 m/s 764 mmHg 13%
22:00 +13°C° 0 mm 2 m/s 764 mmHg 14%
23:00 +13°C° 0 mm 2 m/s 764 mmHg 15%

18 Aprilie, Duminică

Timp Temperatura Precipitaţii Vânt Presiune Umiditate
00:00 +12°C° 0 mm 2 m/s 764 mmHg 16%
01:00 +12°C° 0 mm 2 m/s 764 mmHg 17%
02:00 +10°C° 0 mm 2 m/s 764 mmHg 18%
03:00 +10°C° 0 mm 2 m/s 764 mmHg 19%
04:00 +9°C° 0 mm 2 m/s 764 mmHg 21%
05:00 +8°C° 0 mm 2 m/s 764 mmHg 23%
06:00 +10°C° 0 mm 3 m/s 764 mmHg 22%
07:00 +12°C° 0 mm 3 m/s 764 mmHg 20%
08:00 +14°C° 0 mm 3 m/s 764 mmHg 19%
09:00 +17°C° 0 mm 3 m/s 763 mmHg 17%
10:00 +20°C° 0 mm 3 m/s 763 mmHg 15%
11:00 +22°C° 0 mm 3 m/s 762 mmHg 13%
12:00 +23°C° 0 mm 4 m/s 761 mmHg 12%
13:00 +26°C° 0 mm 4 m/s 760 mmHg 11%
14:00 +27°C° 0 mm 5 m/s 760 mmHg 10%
15:00 +27°C° 0 mm 5 m/s 759 mmHg 11%
16:00 +27°C° 0 mm 5 m/s 758 mmHg 11%
17:00 +27°C° 0 mm 5 m/s 758 mmHg 11%
18:00 +25°C° 0 mm 4 m/s 758 mmHg 13%
19:00 +22°C° 0 mm 4 m/s 758 mmHg 15%
20:00 +20°C° 0 mm 3 m/s 758 mmHg 18%
21:00 +19°C° 0 mm 3 m/s 758 mmHg 20%
22:00 +19°C° 0 mm 4 m/s 758 mmHg 22%
23:00 +17°C° 0 mm 5 m/s 758 mmHg 24%

19 Aprilie, Luni

Timp Temperatura Precipitaţii Vânt Presiune Umiditate
00:00 +17°C° 0 mm 5 m/s 758 mmHg 27%
01:00 +16°C° 0 mm 5 m/s 758 mmHg 29%
02:00 +16°C° 0 mm 5 m/s 758 mmHg 31%
03:00 +15°C° 0 mm 4 m/s 758 mmHg 35%
04:00 +14°C° 0 mm 4 m/s 758 mmHg 39%
05:00 +13°C° 0 mm 3 m/s 758 mmHg 42%
06:00 +14°C° 0 mm 3 m/s 758 mmHg 41%
07:00 +17°C° 0 mm 4 m/s 758 mmHg 39%
08:00 +18°C° 0 mm 4 m/s 758 mmHg 38%
09:00 +20°C° 0 mm 4 m/s 758 mmHg 35%
10:00 +22°C° 0 mm 4 m/s 758 mmHg 31%
11:00 +25°C° 0 mm 4 m/s 758 mmHg 28%
12:00 +27°C° 0 mm 4 m/s 757 mmHg 26%
13:00 +28°C° 0 mm 4 m/s 757 mmHg 23%
14:00 +30°C° 0 mm 4 m/s 756 mmHg 21%
15:00 +30°C° 0 mm 4 m/s 756 mmHg 20%
16:00 +30°C° 0 mm 4 m/s 755 mmHg 19%
17:00 +32°C° 0 mm 5 m/s 755 mmHg 19%
18:00 +29°C° 0 mm 5 m/s 755 mmHg 21%
19:00 +27°C° 0 mm 5 m/s 756 mmHg 23%
20:00 +25°C° 0 mm 5 m/s 756 mmHg 25%
21:00 +25°C° 0 mm 5 m/s 756 mmHg 26%
22:00 +23°C° 0 mm 6 m/s 757 mmHg 27%
23:00 +23°C° 0 mm 6 m/s 757 mmHg 28%
Arată mai mult

Formular de consimțământ

Meteoprog și furnizorii noștri de servicii pot stoca și accesa date personale, precum cookies, identificatori de dispozitiv sau alte tehnologii similare pe dispozitivul dumneavoastră și procesa astfel de date pentru a personaliza conținutul și reclamele, dar și pentru a oferi caracteristici de social media și pentru a analiza traficul.

  • Stocarea și/sau accesarea informațiilor pe dispozitivul dumneavoastră

    Cookies, identificatori de dispozitiv sau alte informații pot fi stocate sau accesate pe dispozitiv în scopurile indicate mai sus.

  • Reclame și conținut personalizat, evaluarea reclamelor și a conținutului, informații despre audiențe și dezvoltarea produselor

    Reclamele și conținutul pot fi personalizate pe baza unui profil. Pot fi adăugate date suplimentare pentru a personaliza mai bine reclamele și conținutul. Performanța reclamelor și conținutului poate fi măsurată. Pot fi obținute informații despre utilizatorii care au văzut reclamele și conținutul. Aceste date pot fi utilizate pentru a dezvolta sau îmbunătăți experiența utilizatorilor, sistemele și software-ul.

Dând clic pe ‘Sunt de acord’, permiteți utilizarea cookie-urilor menționate, a identificatorilor de dispozitiv, balizelor web sau altor tehnologii similare. Setările pot fi modificate din browser-ul dispozitivului dumneavoastră.

În anumite scopuri, interesele legitime pot prima asupra consimțământului. Puteți citi mai multe informații în acest sens în Politica privind Confidențialitatea Datelor și Cookie.